User: anonymous   Login
Location: Unspecified
(0.0000°N, 0.0000°E)
Time: 06:25:42
(UTC+02:00)
Language:

ATLAS V CENTAUR R/B - Orbit

View from above orbital plane
View from above orbital plane
View from above satellite
View from above satellite

Ground track
Ground track

The orbit data is extracted from the following two-line orbital elements,

1 27500U 02038B   15091.45764486  .00026163  00000-0  35151-2 0  9992
2 27500 017.9668 126.0419 6909291 245.2553 342.9812 02.77716122102690
Epoch (UTC): 01 April 2015 10:59:00
Eccentricity: 0.6909291
inclination: 17.9668°
perigee height: 230 km
apogee height: 29773 km
right ascension of ascending node: 126.0419°
argument of perigee: 245.2553°
revolutions per day: 2.77716122
mean anomaly at epoch: 342.9812°
orbit number at epoch: 10269

The dashed part of the orbit path shows where the satellite is in the earth's shadow,  

DLR